Snowfall_Accumulation
0.0 0.0 0.0 0.0 0.0 0.0 0.0 0.0 0.0 0.0 0.0 0.0 0.0 0.0 0.0 0.0 0.0 0.0 0.0 0.0 0.0 0.0 0.0 0.0 0.0 0.0 0.0 0.0 0.0 0.0 0.0 0.0 0.0 0.0 0.0 0.0 0.0 0.0 0.0 0.0 0.0 0.0 0.0
0.1 0.0 0.0 0.0 0.0 0.0 0.0 0.0 0.0 0.0 0.0 0.0 0.0 0.0 0.0 0.0 0.0 0.0 0.0 0.0 0.0 0.0 0.0 0.0 0.0 0.0 0.0 0.0 0.0 0.0 0.0 0.0 0.0 0.0 0.0 0.0 0.0 0.0 0.0 0.0 0.0 0.0 0.0
0.0 0.0 0.0 0.0 0.0 0.0 0.0 0.0 0.0 0.0 0.0 0.0 0.0 0.0 0.0 0.0 0.0 0.0 0.0 0.0 0.0 0.0 0.0 0.0 0.0 0.0 0.0 0.0 0.0 0.0 0.0 0.0 0.0 0.0 0.0 0.0 0.0 0.0 0.0 0.0 0.0 0.0 0.0
0.1 0.0 0.0 0.0 0.0 0.0 0.0 0.0 0.0 0.0 0.0 0.0 0.0 0.0 0.0 0.0 0.0 0.0 0.0 0.0 0.0 0.0 0.0 0.0 0.0 0.0 0.0 0.0 0.0 0.0 0.0 0.0 0.0 0.0 0.0 0.0 0.0 0.0 0.0 0.0 0.0 0.0 0.0
1.6 0.5 0.1 0.0 0.0 0.0 0.0 0.0 0.0 0.0 0.0 0.0 0.0 0.0 0.0 0.0 0.0 0.0 0.0 0.0 0.0 0.0 0.0 0.0 0.0 nan nan nan 0.0 0.0 0.0 0.0 0.0 0.0 0.0 0.0 0.0 0.0 0.0 0.0 0.0 0.0 0.0
3.2 3.2 0.6 0.5 0.1 0.0 0.1 0.0 0.0 0.0 0.0 0.0 0.0 0.0 0.0 0.0 nan nan 0.0 0.0 0.0 0.0 0.0 0.0 0.0 0.0 0.0 nan nan nan nan 0.0 0.0 0.0 0.0 0.0 0.0 0.0 0.0 0.0 0.0 0.0 0.1
1.7 6.0 3.3 1.9 3.8 1.9 0.6 1.1 0.7 0.4 0.2 0.2 0.2 0.1 0.2 0.1 nan nan nan 0.0 0.0 0.0 0.0 0.0 0.0 0.0 nan 0.0 nan nan nan nan nan 0.0 0.0 0.0 0.0 0.0 0.0 0.0 0.0 0.0 0.2
0.4 1.4 4.1 4.1 5.4 6.5 3.5 4.0 4.8 3.1 2.9 1.2 1.3 0.9 0.7 0.5 nan nan nan 0.1 0.4 0.0 0.0 0.0 0.0 0.0 0.0 0.0 0.0 0.0 0.0 0.1 0.1 0.0 0.2 0.9 0.8 0.1 0.0 0.0 0.0 0.1 0.5
0.3 0.5 0.6 2.5 5.2 4.9 5.5 5.6 4.2 3.9 4.1 3.6 1.7 1.9 1.2 0.7 nan nan 0.4 0.5 0.5 0.5 0.2 0.2 0.0 0.0 nan nan 0.0 0.2 1.8 5.5 nan nan nan nan nan nan nan 0.3 0.7 0.6 2.6
1.2 0.9 0.4 0.3 0.8 1.5 2.5 4.6 4.6 3.1 3.6 3.1 1.9 1.7 nan 1.8 nan nan nan 0.3 0.6 0.8 0.7 0.6 nan 0.0 nan nan 0.0 0.1 1.1 6.6 4.8 5.0 5.5 6.2 nan nan nan 0.9 0.7 1.0 3.4
2.1 0.9 1.1 0.9 0.8 0.7 0.7 1.0 1.1 1.1 1.5 2.0 2.6 2.7 2.4 1.9 2.3 nan nan 2.3 3.3 3.0 4.0 4.7 4.1 nan nan nan nan 3.0 8.5 10.2 8.9 9.4 9.4 10.2 9.1 8.6 8.6 8.3 6.3 4.2 4.6
4.2 4.3 3.7 2.9 2.5 1.8 1.5 1.6 1.3 1.1 1.0 1.2 1.0 1.1 1.4 1.3 nan nan nan nan nan 3.3 5.7 5.1 6.2 nan nan nan 3.5 nan nan 3.8 10.2 11.2 10.6 10.9 9.5 9.0 8.9 9.1 8.8 8.2 8.0
5.8 6.5 6.4 4.8 5.3 4.2 3.7 3.6 3.1 2.0 2.5 3.0 2.5 3.1 3.4 2.2 2.6 nan nan nan nan 3.3 5.0 9.2 nan nan nan 1.5 nan nan 3.4 6.5 7.8 9.4 9.6 10.5 9.2 7.1 4.9 5.5 4.6 5.0 6.0
4.2 4.3 5.7 6.8 6.1 6.6 5.3 5.1 5.4 5.1 5.6 5.4 5.1 6.0 5.2 4.6 4.5 3.9 4.2 4.0 2.1 4.7 1.9 5.1 3.2 4.2 3.1 4.6 5.1 6.3 6.9 6.8 7.2 7.7 6.7 5.1 3.9 3.4 3.0 2.6 3.3 3.4 4.0
2.1 2.7 2.4 2.3 3.6 4.2 5.1 5.7 5.0 6.2 5.5 5.2 6.8 6.5 9.7 11.1 12.8 9.2 9.1 8.0 6.5 5.9 4.3 5.9 5.2 4.2 4.4 4.5 4.5 4.6 3.9 3.8 5.1 6.0 5.5 4.7 3.8 2.8 2.5 1.7 2.3 3.3 4.0
0.9 1.6 2.3 2.2 2.5 3.0 3.3 4.0 nan nan nan nan nan 5.0 8.6 nan nan nan nan nan nan nan 4.2 6.7 11.4 11.4 8.2 6.2 6.6 6.1 5.4 4.3 4.5 4.1 4.7 3.5 3.7 4.5 4.0 3.5 3.3 3.8 3.6
0.2 0.1 0.9 1.1 1.3 2.1 2.5 2.3 4.0 6.1 nan nan nan nan nan nan nan nan nan nan nan nan 7.9 8.5 12.1 12.0 7.4 4.4 4.8 4.6 5.8 5.3 2.6 3.5 3.9 4.5 4.4 3.7 4.3 3.6 3.7 3.2 3.1
0.8 1.1 1.9 2.2 2.5 3.5 3.9 4.6 4.9 6.2 8.4 8.3 nan nan nan nan nan nan nan nan 3.6 nan 3.6 5.7 8.6 7.0 4.0 3.6 3.6 3.9 3.8 4.8 4.8 4.0 5.9 8.2 9.5 6.3 5.8 4.2 3.7 5.6 3.0
1.4 2.5 3.5 4.6 5.8 5.9 5.6 5.5 5.1 6.2 7.4 7.5 6.1 3.6 3.6 nan nan nan nan 5.5 5.7 3.8 2.5 2.2 4.3 3.6 2.7 1.6 6.5 7.6 10.2 8.9 9.0 12.1 6.8 7.2 15.9 3.9 4.7 3.7 4.0 3.0 2.8
4.5 3.7 5.1 6.3 6.5 6.9 6.6 5.8 4.9 5.2 6.0 6.3 6.0 6.4 3.8 2.5 10.8 15.6 14.0 15.0 10.0 4.9 4.6 2.7 2.7 3.1 4.8 4.4 9.2 15.1 12.6 12.1 8.8 6.0 12.9 18.8 16.1 7.1 6.9 5.9 7.1 7.0 2.2
4.1 4.1 1.6 3.7 3.6 3.5 4.0 4.6 3.5 4.6 4.9 4.4 7.1 10.3 2.3 4.0 6.8 6.7 5.6 9.7 8.1 5.0 8.2 4.1 5.7 7.2 8.7 9.1 4.2 8.8 3.7 7.8 7.1 7.2 6.3 6.4 30.7 8.7 4.5 4.7 5.4 4.0 2.5
2.4 2.3 2.3 2.9 2.5 4.4 3.2 2.4 3.8 3.8 3.7 4.6 5.6 14.3 3.6 7.4 5.2 5.4 5.4 9.4 11.5 6.0 4.9 5.9 4.4 4.1 4.6 5.4 5.9 17.7 13.5 18.1 13.4 9.7 8.7 8.6 6.1 6.0 5.4 5.3 7.1 7.6 4.0
2.2 3.8 2.2 1.8 2.1 5.6 6.0 3.1 5.6 6.9 6.1 8.3 5.8 5.7 5.6 9.1 8.9 6.0 7.7 12.6 6.7 8.2 7.2 5.9 11.0 6.7 6.8 9.5 9.4 7.9 10.5 9.0 9.1 10.7 13.3 12.9 7.0 7.1 9.5 8.6 5.8 8.3 8.2
2.5 4.0 2.5 5.1 7.1 4.4 10.3 14.7 9.6 7.3 6.6 9.5 15.4 11.8 9.1 9.3 18.6 14.8 15.3 17.8 11.7 15.2 15.2 15.8 7.5 6.0 5.5 16.1 16.6 9.3 5.9 10.4 8.6 9.5 9.8 12.5 8.0 5.5 9.2 7.1 6.6 8.2 9.6
6.2 9.2 9.3 6.5 9.5 12.3 16.5 12.8 14.0 15.2 13.7 16.2 19.1 14.8 5.5 8.0 8.1 20.1 16.2 11.9 10.1 16.3 8.8 11.2 9.3 6.8 8.0 7.4 7.0 4.0 5.4 4.6 9.1 5.1 10.9 8.1 9.8 9.0 9.1 7.6 8.9 7.0 8.4
6.3 4.8 6.0 6.0 6.8 11.1 13.3 19.9 20.2 17.7 17.1 19.3 19.0 19.3 14.3 10.1 9.5 17.8 12.9 12.0 10.3 9.7 9.1 9.9 8.9 7.1 6.4 6.6 4.5 5.6 5.4 5.0 13.7 5.4 17.5 9.1 12.6 11.1 10.3 8.8 6.9 9.2 5.9
Water_Equivalent
0.00 0.00 0.00 0.00 0.00 0.00 0.00 0.00 0.00 0.00 0.00 0.00 0.00 0.00 0.00 0.00 0.00 0.00 0.00 0.00 0.00 0.00 0.00 0.00 0.00 0.00 0.00 0.00 0.00 0.00 0.00 0.00 0.00 0.00 0.00 0.00 0.00 0.00 0.00 0.00 0.00 0.00 0.00
0.01 0.00 0.00 0.00 0.00 0.00 0.00 0.00 0.00 0.00 0.00 0.00 0.00 0.00 0.00 0.00 0.00 0.00 0.00 0.00 0.00 0.00 0.00 0.00 0.00 0.00 0.00 0.00 0.00 0.00 0.00 0.00 0.00 0.00 0.00 0.00 0.00 0.00 0.00 0.00 0.00 0.00 0.00
0.00 0.00 0.00 0.00 0.00 0.00 0.00 0.00 0.00 0.00 0.00 0.00 0.00 0.00 0.00 0.00 0.00 0.00 0.00 0.00 0.00 0.00 0.00 0.00 0.00 0.00 0.00 0.00 0.00 0.00 0.00 0.00 0.00 0.00 0.00 0.00 0.00 0.00 0.00 0.00 0.00 0.00 0.00
0.03 0.00 0.00 0.00 0.00 0.00 0.00 0.00 0.00 0.00 0.00 0.00 0.00 0.00 0.00 0.00 0.00 0.00 0.00 0.00 0.00 0.00 0.00 0.00 0.00 0.00 0.00 0.00 0.00 0.00 0.00 0.00 0.00 0.00 0.00 0.00 0.00 0.00 0.00 0.00 0.00 0.00 0.00
0.46 0.10 0.02 0.00 0.00 0.00 0.00 0.00 0.00 0.00 0.00 0.00 0.00 0.00 0.00 0.00 0.00 0.00 0.00 0.00 0.00 0.00 0.00 0.00 0.00 nan nan nan 0.00 0.00 0.00 0.00 0.00 0.00 0.00 0.00 0.00 0.00 0.00 0.00 0.00 0.00 0.00
0.59 0.68 0.13 0.10 0.02 0.00 0.02 0.01 0.00 0.00 0.00 0.00 0.00 0.00 0.00 0.00 nan nan 0.00 0.00 0.00 0.00 0.00 0.00 0.00 0.00 0.00 nan nan nan nan 0.00 0.00 0.00 0.00 0.00 0.00 0.00 0.00 0.00 0.00 0.00 0.04
0.31 1.29 0.90 0.42 1.00 0.37 0.11 0.23 0.12 0.08 0.04 0.04 0.03 0.01 0.05 0.02 nan nan nan 0.00 0.00 0.00 0.00 0.00 0.00 0.00 nan 0.00 nan nan nan nan nan 0.00 0.00 0.00 0.00 0.00 0.00 0.00 0.00 0.00 0.06
0.06 0.24 0.80 0.80 1.18 2.14 0.79 0.97 1.09 0.54 0.51 0.20 0.22 0.15 0.12 0.10 nan nan nan 0.04 0.12 0.00 0.00 0.00 0.00 0.00 0.00 0.00 0.00 0.00 0.01 0.01 0.02 0.01 0.06 0.22 0.21 0.02 0.00 0.00 0.00 0.03 0.18
0.05 0.08 0.11 0.57 0.97 0.99 1.25 1.50 1.20 1.10 1.20 0.78 0.33 0.32 0.20 0.11 nan nan 0.09 0.12 0.13 0.14 0.08 0.03 0.00 0.00 nan nan 0.00 0.06 0.42 1.22 nan nan nan nan nan nan nan 0.10 0.25 0.20 0.73
0.21 0.15 0.07 0.06 0.17 0.30 0.50 1.02 1.26 0.78 0.87 0.84 0.55 0.43 nan 0.39 nan nan nan 0.08 0.10 0.22 0.17 0.14 nan 0.01 nan nan 0.02 0.03 0.25 1.32 1.07 1.06 1.09 1.23 nan nan nan 0.25 0.22 0.31 0.82
0.52 0.21 0.25 0.19 0.21 0.20 0.18 0.30 0.28 0.29 0.36 0.46 0.58 0.63 0.51 0.36 0.49 nan nan 0.44 0.63 0.57 0.71 0.81 0.88 nan nan nan nan 0.59 1.54 2.07 1.65 1.76 1.67 1.78 1.60 1.47 1.49 1.48 1.19 0.92 1.02
0.96 0.87 0.77 0.61 0.55 0.44 0.36 0.41 0.35 0.30 0.30 0.34 0.28 0.28 0.38 0.31 nan nan nan nan nan 0.59 0.92 0.91 1.21 nan nan nan 0.84 nan nan 1.02 2.17 2.27 2.04 1.90 1.57 1.44 1.38 1.39 1.32 1.26 1.25
1.43 1.31 1.29 1.12 1.12 0.95 0.82 0.78 0.67 0.46 0.56 0.58 0.59 0.68 0.74 0.54 0.59 nan nan nan nan 0.69 1.02 1.76 nan nan nan 0.51 nan nan 1.14 1.61 1.85 2.07 1.91 1.89 1.60 1.16 0.74 0.79 0.63 0.68 0.79
0.85 0.80 1.13 1.20 1.10 1.07 0.98 0.97 0.95 0.93 1.02 1.07 0.95 1.03 1.00 0.96 0.99 0.93 1.01 1.00 0.60 1.05 0.54 1.18 1.07 1.04 1.02 1.26 1.21 1.21 1.28 1.30 1.33 1.33 1.07 0.82 0.65 0.59 0.53 0.44 0.54 0.56 0.62
0.34 0.51 0.40 0.39 0.54 0.60 0.67 0.71 0.66 0.84 0.77 0.73 0.95 1.00 1.54 1.69 2.06 1.80 1.86 1.58 1.35 1.32 1.10 1.28 1.05 0.79 0.76 0.74 0.74 0.75 0.66 0.63 0.79 0.92 0.85 0.69 0.57 0.42 0.39 0.30 0.37 0.49 0.62
0.15 0.26 0.40 0.42 0.44 0.45 0.48 0.56 nan nan nan nan nan 0.89 1.54 nan nan nan nan nan nan nan 0.81 1.14 1.70 1.70 1.14 0.84 0.91 0.84 0.75 0.69 0.65 0.65 0.76 0.55 0.55 0.65 0.54 0.50 0.47 0.52 0.50
0.04 0.03 0.20 0.24 0.26 0.38 0.43 0.39 0.55 0.90 nan nan nan nan nan nan nan nan nan nan nan nan 1.25 1.12 1.65 1.74 1.04 0.56 0.60 0.60 0.78 0.74 0.33 0.57 0.63 0.72 0.73 0.59 0.70 0.57 0.61 0.52 0.50
0.16 0.37 0.40 0.45 0.50 0.64 0.71 0.78 0.82 0.94 1.22 1.15 nan nan nan nan nan nan nan nan 0.62 nan 0.56 0.82 1.13 0.98 0.54 0.46 0.44 0.47 0.49 0.67 0.70 0.60 0.87 1.15 1.35 0.94 0.91 0.65 0.58 0.79 0.47
0.28 0.49 0.66 0.91 1.09 1.08 1.04 0.97 0.87 1.01 1.06 1.00 0.84 0.67 0.88 nan nan nan nan 0.85 0.81 0.57 0.40 0.35 0.65 0.55 0.42 0.28 0.97 1.16 1.54 1.36 1.39 1.83 1.04 1.12 2.53 0.65 0.76 0.59 0.64 0.62 0.59
0.83 1.06 1.04 1.11 1.08 1.12 1.08 0.92 0.79 0.83 0.87 0.85 0.79 0.80 0.53 0.45 1.54 2.29 2.04 2.20 1.37 0.61 0.61 0.39 0.39 0.42 0.65 0.62 1.38 2.26 1.96 1.92 1.31 0.94 1.90 2.96 2.66 1.10 1.01 0.85 1.05 1.04 0.35
0.69 0.72 0.52 0.69 0.62 0.60 0.66 0.77 0.58 0.68 0.70 0.60 0.97 1.56 0.74 0.54 0.94 0.93 0.74 1.38 1.10 0.64 1.11 0.51 0.75 0.99 1.23 1.29 0.56 1.22 0.53 1.14 1.00 1.02 0.91 0.95 5.15 1.18 0.71 0.75 0.90 0.65 0.39
0.44 0.42 0.42 0.53 0.45 0.73 0.53 0.44 0.62 0.59 0.58 0.67 0.82 2.55 1.17 1.04 0.71 0.72 0.72 1.33 1.72 0.80 0.64 0.80 0.59 0.53 0.61 0.71 0.78 2.60 1.75 2.42 1.94 1.40 1.19 1.12 0.88 0.96 0.82 0.83 1.04 1.09 0.66
0.42 0.80 0.43 0.31 0.38 1.77 1.04 0.52 0.83 1.06 0.91 1.30 0.84 0.81 0.81 1.30 1.26 0.79 1.07 2.07 0.97 1.21 1.07 0.83 1.64 0.92 0.94 1.31 1.33 1.06 1.34 1.14 1.22 1.46 1.71 1.72 0.95 1.04 1.42 1.29 0.92 1.09 1.05
0.55 0.87 0.54 0.96 1.29 0.70 1.62 2.30 1.46 2.25 1.01 1.45 2.50 1.84 1.39 1.41 2.99 2.32 2.46 3.09 1.84 2.56 2.58 2.57 1.07 0.81 0.75 2.43 2.45 1.27 0.77 1.38 1.11 1.14 1.27 1.56 1.10 1.08 1.31 1.01 0.98 1.06 1.20
1.20 1.76 1.72 1.10 1.69 2.15 2.83 2.00 2.21 2.55 2.30 2.76 3.15 2.38 0.84 1.27 1.26 3.45 2.64 1.86 1.55 2.63 1.33 1.73 1.42 1.00 1.16 0.95 0.87 0.47 0.85 1.53 1.49 1.68 1.27 1.02 1.25 1.11 1.12 1.03 1.26 1.02 1.06
1.16 0.91 1.10 1.10 1.23 2.03 2.24 3.20 3.19 2.80 2.67 3.12 3.15 3.26 2.35 1.58 1.49 2.94 1.97 1.79 1.48 1.39 1.32 1.44 1.29 1.00 0.88 0.90 0.57 1.71 1.78 1.64 1.72 1.77 2.00 1.11 1.50 1.43 1.38 1.18 0.97 1.24 0.79
SL_Ratio
nan nan nan nan nan nan nan nan nan nan nan nan nan nan nan nan nan nan nan nan nan nan nan nan nan nan nan nan nan nan nan nan nan nan nan nan nan nan nan nan nan nan nan
5.5 nan nan nan nan nan nan nan nan nan nan nan nan nan nan nan nan nan nan nan nan nan nan nan nan nan nan nan nan nan nan nan nan nan nan nan nan nan nan nan nan nan nan
2.9 nan nan nan nan nan nan nan nan nan nan nan nan nan nan nan nan nan nan nan nan nan nan nan nan nan nan nan nan nan nan nan nan nan nan nan nan nan nan nan nan nan nan
4.3 2.5 nan nan nan nan nan nan nan nan nan nan nan nan nan nan nan nan nan nan nan nan nan nan nan nan nan nan nan nan nan nan nan nan nan nan nan nan nan nan nan nan nan
3.3 4.9 5.1 0.0 nan nan nan nan nan nan nan nan nan nan nan nan nan nan nan nan nan nan nan nan nan nan nan nan nan nan nan nan nan nan nan nan nan nan nan nan nan nan nan
5.4 4.7 4.5 5.0 5.5 nan 4.9 3.8 3.8 4.0 5.0 0.0 nan nan nan nan nan nan nan nan nan nan nan nan nan nan nan nan nan nan nan nan nan nan nan nan nan nan nan nan nan nan 2.5
5.4 4.6 3.7 4.5 3.8 5.1 5.3 5.0 5.6 5.2 4.7 4.6 4.6 5.0 5.4 5.5 nan nan nan nan nan nan nan nan nan nan nan nan nan nan nan nan nan nan nan nan nan nan nan nan nan 1.7 2.5
6.0 5.9 5.1 5.1 4.6 3.0 4.4 4.2 4.4 5.8 5.8 6.2 6.1 5.8 5.9 5.7 nan nan nan 3.9 3.6 4.4 2.5 3.3 nan nan nan nan nan nan 4.5 3.9 3.6 3.8 3.7 4.0 3.7 3.8 nan nan 2.0 2.5 2.5
5.1 5.7 5.6 4.4 5.3 4.9 4.4 3.7 3.5 3.5 3.4 4.6 5.3 6.0 6.1 6.3 nan nan 4.8 4.1 3.4 3.3 2.8 6.2 nan nan nan nan nan 4.1 4.2 4.5 nan nan nan nan nan nan nan 2.5 2.7 2.8 3.5
5.7 5.6 5.2 4.9 4.8 4.9 5.0 4.6 3.7 4.0 4.1 3.7 3.5 4.0 nan 4.7 nan nan nan 4.0 5.7 3.7 4.1 4.2 nan 3.0 nan nan 2.4 3.2 4.3 5.0 4.5 4.7 5.0 5.0 nan nan nan 3.5 3.0 3.3 4.2
4.0 4.3 4.4 4.6 4.0 3.7 3.5 3.5 3.8 3.9 4.1 4.4 4.5 4.3 4.6 5.3 4.6 nan nan 5.1 5.3 5.3 5.6 5.8 4.7 nan nan nan nan 5.0 5.5 5.0 5.4 5.4 5.6 5.7 5.7 5.9 5.8 5.6 5.3 4.6 4.5
4.4 5.0 4.8 4.8 4.5 4.1 4.3 3.8 3.7 3.6 3.2 3.6 3.6 3.9 3.8 4.0 nan nan nan nan nan 5.5 6.2 5.6 5.1 nan nan nan 4.2 nan nan 3.7 4.7 5.0 5.2 5.7 6.0 6.3 6.5 6.6 6.6 6.5 6.4
4.0 4.9 5.0 4.3 4.7 4.4 4.5 4.6 4.7 4.4 4.5 5.1 4.3 4.5 4.6 4.2 4.4 nan nan nan nan 4.9 4.9 5.2 nan nan nan 3.0 nan nan 3.0 4.0 4.2 4.5 5.0 5.6 5.7 6.1 6.6 7.0 7.2 7.4 7.7
4.9 5.4 5.0 5.7 5.5 6.2 5.4 5.2 5.7 5.5 5.5 5.1 5.4 5.8 5.2 4.9 4.6 4.2 4.2 4.0 3.4 4.5 3.5 4.3 3.0 4.1 3.0 3.6 4.2 5.2 5.4 5.2 5.4 5.8 6.2 6.2 6.0 5.8 5.8 5.9 6.0 6.2 6.5
6.0 5.3 6.0 6.0 6.7 7.0 7.6 8.0 7.5 7.4 7.1 7.2 7.2 6.5 6.3 6.6 6.2 5.1 4.9 5.0 4.8 4.4 3.9 4.6 5.0 5.4 5.8 6.0 6.0 6.1 6.0 6.0 6.4 6.5 6.5 6.7 6.7 6.6 6.4 5.6 6.1 6.6 6.4
6.0 6.0 5.7 5.3 5.8 6.6 6.9 7.2 nan nan nan nan nan 5.6 5.6 nan nan nan nan nan nan nan 5.1 5.9 6.7 6.7 7.1 7.4 7.2 7.3 7.2 6.2 6.9 6.3 6.1 6.3 6.9 7.0 7.4 6.9 7.0 7.2 7.1
4.8 4.6 4.6 4.6 5.0 5.5 5.7 6.0 7.3 6.8 nan nan nan nan nan nan nan nan nan nan nan nan 6.3 7.6 7.3 6.9 7.1 7.9 7.9 7.6 7.5 7.2 8.1 6.2 6.2 6.2 6.0 6.3 6.2 6.3 6.1 6.1 6.3
5.4 3.0 4.8 4.9 5.0 5.5 5.5 5.8 6.0 6.6 6.9 7.2 nan nan nan nan nan nan nan nan 5.8 nan 6.5 7.0 7.7 7.1 7.3 7.8 8.3 8.2 7.8 7.1 6.9 6.7 6.7 7.1 7.1 6.7 6.4 6.5 6.4 7.0 6.4
4.8 5.1 5.2 5.1 5.3 5.4 5.4 5.6 5.9 6.2 6.9 7.5 7.3 5.3 4.1 nan nan nan nan 6.4 7.0 6.7 6.2 6.3 6.7 6.6 6.3 5.6 6.7 6.6 6.6 6.5 6.5 6.6 6.5 6.4 6.3 6.0 6.2 6.2 6.2 4.8 4.7
5.4 3.5 4.9 5.6 6.0 6.1 6.2 6.3 6.2 6.3 6.9 7.4 7.6 8.0 7.3 5.6 7.0 6.8 6.9 6.8 7.3 8.0 7.6 6.9 6.8 7.5 7.3 7.2 6.6 6.7 6.4 6.3 6.7 6.4 6.8 6.4 6.0 6.4 6.8 6.9 6.7 6.7 6.2
5.9 5.6 3.0 5.4 5.7 5.9 6.0 6.1 6.1 6.7 7.0 7.3 7.3 6.6 3.0 7.4 7.3 7.2 7.6 7.1 7.4 7.8 7.4 8.0 7.6 7.3 7.1 7.0 7.5 7.2 7.0 6.8 7.0 7.1 6.9 6.7 6.0 7.4 6.4 6.3 6.0 6.2 6.3
5.6 5.5 5.4 5.5 5.5 6.0 6.1 5.5 6.2 6.3 6.4 6.9 6.8 5.6 3.0 7.1 7.3 7.5 7.5 7.0 6.7 7.5 7.7 7.3 7.6 7.7 7.6 7.6 7.5 6.8 7.7 7.5 6.9 6.9 7.3 7.7 6.9 6.2 6.7 6.4 6.9 7.0 6.2
5.3 4.7 5.0 5.7 5.5 3.2 5.8 6.1 6.8 6.5 6.7 6.4 6.9 7.1 7.0 7.0 7.1 7.6 7.2 6.1 6.9 6.8 6.7 7.2 6.7 7.3 7.2 7.2 7.1 7.4 7.9 7.9 7.5 7.3 7.8 7.5 7.4 6.8 6.7 6.7 6.4 7.6 7.8
4.6 4.6 4.7 5.3 5.5 6.3 6.4 6.4 6.5 3.2 6.6 6.6 6.2 6.4 6.5 6.6 6.2 6.4 6.2 5.8 6.4 5.9 5.9 6.1 7.0 7.4 7.4 6.6 6.8 7.3 7.7 7.6 7.8 8.4 7.7 8.0 7.3 5.1 7.0 7.0 6.7 7.8 8.0
5.2 5.2 5.4 5.9 5.7 5.7 5.8 6.4 6.3 6.0 6.0 5.9 6.1 6.2 6.6 6.3 6.4 5.8 6.2 6.4 6.5 6.2 6.6 6.5 6.6 6.8 6.9 7.7 8.0 8.5 6.4 3.0 6.1 3.0 8.6 8.0 7.9 8.1 8.1 7.4 7.1 6.9 8.0
5.4 5.3 5.4 5.5 5.5 5.5 6.0 6.2 6.3 6.3 6.4 6.2 6.0 5.9 6.1 6.4 6.3 6.0 6.6 6.7 7.0 7.0 6.9 6.9 6.9 7.1 7.3 7.3 8.0 3.3 3.0 3.0 8.0 3.0 8.8 8.3 8.4 7.8 7.4 7.5 7.1 7.4 7.5